User: anonymous
Location: Unspecified
(0.0000°N, 0.0000°E)
Time: 00:18:30
(UTC+02:00)
Language:

Cosmos 1538 Rocket - Orbit

View from above orbital plane
View from above orbital plane
View from above satellite
View from above satellite

Ground track
Ground track

The orbit data is extracted from the following two-line orbital elements,

1 14760U 84019B   14110.48218368  .00000449  00000-0  16439-3 0  2937
2 14760 074.0445 077.7983 0028794 222.9875 276.0085 14.35471122578019
Epoch (UTC): 20 April 2014 11:34:20
Eccentricity: 0.0028794
inclination: 74.0445°
perigee height: 753 km
apogee height: 794 km
right ascension of ascending node: 77.7983°
argument of perigee: 222.9875°
revolutions per day: 14.35471122
mean anomaly at epoch: 276.0085°
orbit number at epoch: 57801

The dashed part of the orbit path shows where the satellite is in the earth's shadow,  

DLR